[[{"header":{"parameterUnit":"m.s-1","parameterCategory":1,"la1":30.2991,"la2":30.254,"lo1":-89.0895,"lo2":-89.0444,"dy":0.0017,"dx":0.0017,"nx":28,"ny":28,"refTime":"2024-02-06T03:00:00:Z","depth":0,"parameterNumber":2,"parameterNumberName":"U-component_of_WINDS"},"data":[0,0,0,0,0,0,0,0,0,0,0,0,0,0,0,0,0,0,0,0,0,0,0,0,0,0,0,0,0,0,0,0,0,0,0,0,0,0,0,0,0,0,0,0,0,0,0,0,0,0,0,0,0,0,0,0,0,0,-4.9741,-4.9742,0,-4.9799,-4.98,-4.98,-4.9729,-4.9726,-4.9724,-4.9721,-4.9781,-4.9785,-4.9789,0,0,0,0,0,0,0,0,0,0,0,0,0,-4.9571,-4.9575,-4.9741,-4.9742,-4.9742,-4.9799,-4.98,-4.9801,-4.9729,-4.9726,-4.9723,-4.972,-4.978,-4.9785,-4.979,0,0,0,0,0,0,0,0,0,0,0,0,0,-4.9639,-4.9576,-4.9741,-4.9714,-4.9712,-4.9799,-4.98,-4.9801,-4.973,-4.9726,-4.9722,-4.9718,-4.9778,-4.9784,-4.979,-4.9907,0,0,-4.9809,-4.9812,0,0,0,0,0,0,0,0,-4.9635,-4.9645,-4.9717,-4.9716,-4.9714,-4.9753,-4.9762,-4.9837,-4.9731,-4.9723,-4.9721,-4.9716,-4.9775,-4.9781,-4.9801,-4.991,-4.9912,-4.9809,-4.9813,-4.9816,-4.9817,0,0,0,0,0,0,0,-4.9631,-4.9642,-4.9764,-4.9718,-4.9716,-4.97,-4.9705,-4.9776,-4.9771,-4.9723,-4.9718,-4.9726,-4.9773,-4.9795,-4.9802,-4.9913,-4.9809,-4.9815,-4.9818,-4.9821,-5.0124,-5.0128,0,0,0,0,0,0,-4.9629,-4.9639,-4.9762,-4.9766,-4.9664,-4.9706,-4.9712,-4.9744,-4.977,-4.977,-4.973,-4.9723,-4.9787,-4.9795,-4.9803,-4.9942,-4.9816,-4.9821,-4.9825,-5.0119,-5.0125,-5.0129,0,0,0,0,0,0,-4.9625,-4.964,-4.976,-4.9701,-4.9715,-4.9713,-4.975,-4.9747,-4.9769,-4.9774,-4.9773,-4.9752,-4.9784,-4.9795,-4.9882,-4.9943,-4.9824,-4.983,-5.0114,-5.0121,-5.0127,-5.022,0,0,0,0,0,0,-4.9621,-4.964,-4.9683,-4.9703,-4.9718,-4.9837,-4.9754,-4.9751,-4.9779,-4.9771,-4.9795,-4.9795,-4.9782,-4.9874,-4.9888,-4.9949,-4.9834,-5.0109,-5.0117,-5.0125,-5.0211,-5.0229,-5.0244,0,0,0,0,0,-4.9615,-4.9706,-4.9685,-4.97,-4.9772,-4.984,-4.9849,-4.9831,-4.9785,-4.9828,-4.9833,-4.9795,-4.9935,-4.9883,-4.9899,-4.9963,-5.0105,-5.0115,-5.0124,-5.0204,-5.0225,-5.0243,0,0,0,0,0,0,-4.9692,-4.9708,-4.9685,-4.9785,-4.9812,-4.9828,-4.9882,-4.9854,-4.9894,-4.9885,-4.9861,-4.9868,-4.9961,-4.9971,-4.9913,-5.0079,-5.0012,-5.0026,-5.0067,-5.0088,-5.0104,-5.0097,-4.9839,0,0,0,0,0,-4.9721,-4.9775,-4.9786,-4.9873,-4.9888,-4.9884,-4.9912,-4.9897,-4.9924,-4.9934,-4.9945,-4.9973,-5.0023,-5.0057,-5.0103,-5.0214,-5.0219,-5.0266,-5.0283,-5.0296,-5.0307,-5.0367,-5.0388,-5.0162,-5.0162,-5.0162,0,0,-4.9781,-4.9796,-4.9831,-4.9889,-4.9908,-4.9965,-4.9893,-4.9955,-4.9997,-4.9944,-5.0026,-5.0036,-5.0066,-5.0166,-5.0211,-5.0177,-5.0371,-5.0309,-5.0319,-5.0323,-5.038,-5.0401,-5.042,-5.0169,-5.0167,-5.0166,0,0,-4.9917,-4.9935,-5.001,-5.0031,-5.0062,-5.0059,-5.0077,-5.0099,-5.0103,-5.0186,-5.0148,-5.0199,-5.0286,-5.0309,-5.0333,-5.0485,-5.0451,-5.0501,-5.0584,-5.0644,-5.0661,-5.0677,-5.073,-5.075,-5.0513,-5.0513,-5.0513,0,-4.9987,-5.007,-5.0052,-5.0118,-5.0145,-5.0102,-5.0178,-5.02,-5.0244,-5.0264,-5.0228,-5.0338,-5.0355,-5.046,-5.0498,-5.0519,-5.054,-5.0496,-5.066,-5.0676,-5.069,-5.0741,-5.0761,-5.0519,-5.0518,-5.0518,-5.0517,0,-5.0154,-5.0213,-5.027,-5.0314,-5.0349,-5.042,-5.0414,-5.0452,-5.0435,-5.0437,-5.0524,-5.0544,-5.0594,-5.0619,-5.0603,-5.0724,-5.0702,-5.0664,-5.0596,-5.0718,-5.0765,-5.0784,-5.0527,-5.0525,-5.0523,-5.0522,0,0,-5.0335,-5.0372,-5.0393,-5.0414,-5.0447,-5.0492,-5.0564,-5.0614,-5.0646,-5.068,-5.0739,-5.0817,-5.0782,-5.0809,-5.0796,-5.0849,-5.0968,-5.0804,-5.0804,-5.0832,-5.1102,-5.1128,-5.115,-5.0948,-5.0952,-5.0955,-5.1098,0,-5.0471,-5.0591,-5.058,-5.0695,-5.075,-5.0712,-5.0774,-5.0802,-5.0808,-5.0856,-5.0862,-5.0917,-5.0868,-5.0884,-5.0935,-5.0942,-5.1021,-5.0932,-5.1002,-5.1004,-5.0991,-5.1175,-5.1202,-5.1337,-5.1117,-5.112,-5.1122,0,-5.0643,-5.0684,-5.0805,-5.0832,-5.0855,-5.091,-5.0957,-5.1004,-5.1036,-5.1036,-5.1069,-5.1049,-5.1121,-5.1056,-5.1157,-5.1097,-5.1126,-5.1135,-5.114,-5.1142,-5.1067,-5.118,-5.1379,-5.1398,-5.1151,-5.1149,-5.1147,0,-5.0761,-5.0847,-5.093,-5.095,-5.0984,-5.1024,-5.104,-5.1069,-5.1101,-5.1143,-5.1164,-5.1214,-5.1241,-5.1281,-5.1276,-5.1229,-5.1379,-5.1312,-5.138,-5.1381,-5.1409,-5.1407,-5.1613,-5.1434,-5.1434,-5.1433,-5.1433,0,-5.0911,-5.0986,-5.0984,-5.1035,-5.1119,-5.1107,-5.1191,-5.1203,-5.123,-5.1283,-5.1256,-5.1307,-5.1298,-5.1351,-5.1347,-5.1431,-5.1444,-5.1447,-5.1444,-5.1447,-5.1446,-5.1462,-5.1452,-5.1439,-5.1438,-5.1436,-5.1436,0,-5.1054,-5.1055,-5.1144,-5.1171,-5.118,-5.1241,-5.1264,-5.1313,-5.1319,-5.1388,-5.1403,-5.1412,-5.1472,-5.1472,-5.154,-5.1538,-5.1641,-5.1629,-5.1629,-5.1626,-5.1693,-5.1686,-5.1913,-5.1942,-5.1748,-5.175,-5.1751,0,-5.1147,-5.1204,-5.1239,-5.1273,-5.1292,-5.1348,-5.1381,-5.1374,-5.141,-5.1454,-5.1498,-5.1556,-5.1601,-5.17,-5.1713,-5.1766,-5.1754,-5.1831,-5.1761,-5.1763,-5.1753,-5.1748,-5.1754,-5.1842,-5.1845,-5.1846,-5.1848,0,-5.1313,-5.1312,-5.1361,-5.1412,-5.1453,-5.1492,-5.1528,-5.1559,-5.1556,-5.1598,-5.166,-5.1696,-5.1767,-5.1825,-5.1878,-5.1896,-5.1872,-5.1871,-5.1889,-5.189,-5.1887,-5.1888,-5.1663,-5.1864,-5.1862,-5.1861,-5.186,-5.186,-5.1432,-5.1482,-5.1514,-5.1571,-5.1598,-5.1634,-5.1682,-5.1695,-5.1746,-5.1803,-5.1798,-5.1866,-5.1901,-5.1969,-5.1993,-5.2047,-5.202,-5.2047,-5.2053,-5.2059,-5.2066,-5.1882,-5.2057,-5.2057,-5.2056,-5.2056,-5.2056,0,-5.1595,-5.1615,-5.1667,-5.172,-5.1765,-5.1741,-5.1782,-5.1821,-5.1882,-5.1917,-5.1963,-5.2036,-5.2093,-5.2113,-5.2169,-5.2209,-5.22,-5.2224,-5.2219,-5.2224,-5.2087,-5.2065,-5.2231,-5.2231,-5.2231,-5.2231,-5.2231,-5.2231,-5.1684,-5.1766,-5.1771,-5.1868,-5.1888,-5.1955,-5.1981,-5.2014,-5.2042,-5.2124,-5.2172,-5.2185,-5.2215,-5.2274,-5.2326,-5.2331,-5.2352,-5.238,-5.238,-5.2251,-5.2233,-5.2216,-5.2195,-5.2386,-5.2386,-5.2512,-5.2513,-5.2514]},{"header":{"parameterUnit":"m.s-1","parameterCategory":1,"la1":30.2991,"la2":30.254,"lo1":-89.0895,"lo2":-89.0444,"dy":0.0017,"dx":0.0017,"nx":28,"ny":28,"refTime":"2024-02-06T03:00:00:Z","depth":0,"parameterNumber":3,"parameterNumberName":"V-component_of_WINDS"},"data":[0,0,0,0,0,0,0,0,0,0,0,0,0,0,0,0,0,0,0,0,0,0,0,0,0,0,0,0,0,0,0,0,0,0,0,0,0,0,0,0,0,0,0,0,0,0,0,0,0,0,0,0,0,0,0,0,0,0,2.1867,2.1868,0,2.1915,2.1916,2.1916,2.1987,2.1988,2.199,2.1991,2.2033,2.2033,2.2033,0,0,0,0,0,0,0,0,0,0,0,0,0,2.1833,2.1833,2.1867,2.1868,2.1869,2.1915,2.1916,2.1917,2.1987,2.1989,2.199,2.1992,2.2033,2.2033,2.2033,0,0,0,0,0,0,0,0,0,0,0,0,0,2.1861,2.1833,2.1867,2.1909,2.1914,2.1915,2.1916,2.1917,2.1987,2.1989,2.199,2.1992,2.2033,2.2033,2.2033,2.1995,0,0,2.2033,2.2033,0,0,0,0,0,0,0,0,2.1859,2.1862,2.1903,2.1907,2.1911,2.1947,2.192,2.1943,2.1986,2.1959,2.1991,2.1993,2.2003,2.2005,2.201,2.1997,2.1999,2.2033,2.2033,2.2033,2.2033,0,0,0,0,0,0,0,2.1857,2.186,2.1886,2.1903,2.1908,2.1925,2.1931,2.1924,2.1969,2.1961,2.1967,2.1972,2.2005,2.201,2.2012,2.2,2.2033,2.2033,2.2033,2.2033,2.1961,2.1959,0,0,0,0,0,0,2.185,2.1858,2.1885,2.1888,2.189,2.1924,2.1931,2.1934,2.197,2.1977,2.197,2.1975,2.2009,2.2012,2.2013,2.1973,2.2033,2.2033,2.2033,2.1962,2.196,2.1958,0,0,0,0,0,0,2.1849,2.1851,2.1883,2.1874,2.188,2.1923,2.1925,2.1934,2.1938,2.1976,2.1984,2.1966,2.2011,2.2013,2.2,2.1975,2.2033,2.2033,2.1965,2.1962,2.1959,2.189,0,0,0,0,0,0,2.1847,2.1851,2.1837,2.1874,2.188,2.187,2.1924,2.1933,2.1939,2.1946,2.1975,2.1982,2.2012,2.2,2.2,2.1976,2.2033,2.1967,2.1963,2.196,2.1895,2.1885,2.1877,0,0,0,0,0,2.1846,2.1814,2.1836,2.1839,2.1864,2.1868,2.1872,2.1909,2.1936,2.1923,2.1948,2.1981,2.1978,2.1998,2.1999,2.1974,2.1969,2.1964,2.196,2.1899,2.1887,2.1877,0,0,0,0,0,0,2.177,2.1819,2.1844,2.1823,2.1842,2.188,2.1864,2.1895,2.1904,2.191,2.1954,2.196,2.1942,2.1957,2.1978,2.1941,2.1979,2.1974,2.1931,2.1921,2.1912,2.1908,2.2033,0,0,0,0,0,2.1751,2.1752,2.1794,2.1771,2.178,2.182,2.1823,2.1851,2.1871,2.1878,2.1902,2.1918,2.1921,2.1922,2.1926,2.1898,2.1906,2.1881,2.1873,2.1865,2.1861,2.1848,2.1838,2.1944,2.1944,2.1944,0,0,2.1711,2.1739,2.1736,2.1757,2.1774,2.1773,2.1826,2.1822,2.1821,2.1876,2.1867,2.1885,2.1906,2.1885,2.1877,2.1897,2.1834,2.186,2.1854,2.1853,2.1843,2.1833,2.1824,2.1941,2.1942,2.1942,0,0,2.1639,2.1659,2.1644,2.1661,2.1688,2.1716,2.1712,2.1747,2.1762,2.1754,2.1796,2.1795,2.1799,2.1813,2.1821,2.1757,2.1788,2.1757,2.1711,2.1698,2.169,2.1683,2.1661,2.1652,2.1753,2.1753,2.1753,0,2.1586,2.1587,2.1631,2.1626,2.1634,2.1688,2.1673,2.1687,2.1712,2.1716,2.1739,2.1747,2.1765,2.1749,2.1735,2.1738,2.1736,2.1753,2.1688,2.1681,2.1675,2.1655,2.1646,2.1749,2.1749,2.175,2.175,0,2.1521,2.1522,2.1506,2.1533,2.154,2.1529,2.1571,2.1572,2.16,2.1625,2.1617,2.1641,2.1652,2.1651,2.1676,2.1639,2.1651,2.168,2.1719,2.166,2.1642,2.1634,2.1743,2.1745,2.1746,2.1747,0,0,2.14,2.1455,2.1448,2.1462,2.1497,2.1497,2.1489,2.1504,2.1504,2.1521,2.1515,2.1519,2.1547,2.1556,2.1584,2.1573,2.1523,2.1604,2.1605,2.1588,2.1485,2.1463,2.1453,2.1544,2.1543,2.1542,2.1483,0,2.1334,2.1326,2.1367,2.1347,2.1349,2.1401,2.1395,2.1415,2.1439,2.1443,2.1468,2.1471,2.1507,2.1513,2.1505,2.1531,2.1503,2.1536,2.1539,2.1538,2.1532,2.1443,2.142,2.1363,2.1476,2.1475,2.1474,0,2.1256,2.1273,2.1254,2.1292,2.1294,2.1288,2.1306,2.1309,2.1333,2.1351,2.1363,2.1397,2.1391,2.1429,2.1422,2.1444,2.1448,2.1461,2.146,2.1461,2.1502,2.1442,2.1346,2.1337,2.1463,2.1464,2.1465,0,2.1171,2.1188,2.118,2.119,2.1234,2.1228,2.1246,2.1273,2.128,2.1294,2.1299,2.1312,2.1319,2.1328,2.1365,2.1389,2.1353,2.1394,2.1368,2.1367,2.1357,2.1357,2.126,2.136,2.136,2.136,2.136,0,2.1094,2.108,2.1142,2.1137,2.1124,2.1171,2.1156,2.1179,2.1203,2.1202,2.1247,2.1246,2.1294,2.1298,2.1326,2.1317,2.1319,2.1333,2.1341,2.1329,2.1327,2.1332,2.1337,2.1358,2.1358,2.1359,2.1359,0,2.0996,2.1037,2.1031,2.1075,2.1086,2.1074,2.1111,2.1108,2.1136,2.1135,2.1138,2.1181,2.1188,2.1226,2.124,2.1259,2.124,2.1255,2.1232,2.1237,2.1209,2.1211,2.1111,2.11,2.1206,2.1205,2.1204,0,2.0944,2.0936,2.098,2.0984,2.1001,2.1006,2.1015,2.1061,2.1068,2.1097,2.109,2.1101,2.1112,2.112,2.1152,2.1164,2.118,2.1144,2.1182,2.1171,2.118,2.118,2.118,2.1136,2.1134,2.1133,2.1132,0,2.0848,2.0869,2.0881,2.0899,2.0909,2.0925,2.0944,2.0944,2.0996,2.1001,2.101,2.1019,2.1036,2.1047,2.1065,2.1082,2.1115,2.1121,2.1115,2.1103,2.1091,2.1098,2.121,2.1122,2.1123,2.1124,2.1125,2.1125,2.0772,2.0768,2.0799,2.081,2.083,2.0848,2.0848,2.0877,2.0886,2.0906,2.0932,2.0938,2.0964,2.0992,2.1007,2.1012,2.1031,2.1022,2.1021,2.1018,2.1012,2.109,2.1015,2.1015,2.1015,2.1016,2.1016,0,2.0679,2.0703,2.0713,2.074,2.0749,2.0783,2.0806,2.0811,2.0816,2.0839,2.0851,2.0862,2.0873,2.0907,2.0921,2.0918,2.0934,2.092,2.0921,2.0925,2.0994,2.0998,2.0908,2.0908,2.0908,2.0908,2.0908,2.0908,2.0632,2.0627,2.0652,2.0658,2.0682,2.069,2.07,2.0717,2.0735,2.0747,2.0757,2.078,2.0808,2.0825,2.0837,2.0846,2.0849,2.0831,2.0845,2.0909,2.0919,2.0929,2.0933,2.0831,2.0831,2.0776,2.0775,2.0775]}]]